Location: Znojmo
(48.8500°N, 16.0500°E)
Time: 10:45:31
(UTC+02:00)

ISS - Pass Details

Date: 24 March 2019
Orbit: 408 x 410 km, 51.6° (Epoch: 21 April)

Event Time Altitude Azimuth Distance (km) Brightness Sun altitude
Rises 19:27:20 0° 235° (SW) 2,328 0.6 -12.7°
Reaches altitude 10° 19:29:26 10° 231° (SW) 1,469 -0.5 -13.0°
Maximum altitude 19:32:40 56° 152° (SSE) 493 -3.7 -13.5°
Enters shadow 19:34:21 25° 83° (E) 873 -2.7 -13.7°
